sat.trackr.live / text

‹ back to catalog

STARLINK-4288

NORAD 53005 · 2022-076V

PAYLOAD ACTIVE UNKNOWN

§ Identity

Operator
Country
US
Launch date
2022-07-07
Launch site
AFETR
Launch vehicle
Mass (kg)
RCS (m²)

Purposes: comms

External: N2YO · Heavens-Above · Gunter

§ Orbital elements

Epoch: 2026-05-25T02:25:25.451328Z

Period
95.44 min
Inclination
53.2150°
Eccentricity
0.0001419
Mean motion
15.08837897 rev/d
Perigee alt
538.8 km
Apogee alt
540.7 km
Semi-major
6,917.9 km
B*
1.7977e-5
RAAN
111.0980°
Arg perigee
77.2557°
Mean anomaly
282.8593°
Rev number
21,438

§ Raw data

STARLINK-42881 53005U 22076V   26145.10098902 -.00000002  00000+0  17977-4 0  99942 53005  53.2150 111.0980 0001419  77.2557 282.8593 15.08837897214380

JSON: /api/v1/satellites/53005 · /tle

For live sub-satellite position, see the globe view (requires WebGL).

§ Visibility from observer

Set your observer location to see the next 7 days of passes ≥ 10°. The values pass through the URL so the page stays shareable.

No JS? Fill the form by hand. The geolocation button needs JavaScript.